[[{"header":{"parameterUnit":"m.s-1","parameterCategory":2,"la1":30.2991,"la2":30.254,"lo1":-89.0895,"lo2":-89.0444,"dy":0.0017,"dx":0.0017,"nx":28,"ny":28,"refTime":"2024-04-15T03:00:00:Z","depth":"0","parameterNumber":2,"parameterNumberName":"U-component_of_CURRENTS"},"data":[0,0,0,0,0,0,0,0,0,0,0,0,0,0,0,0,0,0,0,0,0,0,0,0,0,0,0,0,0,0,0,0,0,0,0,0,0,0,0,0,0,0,0,0,0,0,0,0,0,0,0,0,0,0,0,0,0,0,0.167,0.1671,0,0.1799,0.1801,0.1802,0.1854,0.1853,0.1852,0.1851,0.2041,0.2047,0.2052,0,0,0,0,0,0,0,0,0,0,0,0,0,0.1626,0.1626,0.167,0.1671,0.1672,0.1798,0.1801,0.1803,0.1854,0.1853,0.1852,0.1851,0.2039,0.2046,0.2053,0,0,0,0,0,0,0,0,0,0,0,0,0,0.1694,0.1626,0.1669,0.1708,0.1713,0.1798,0.1801,0.1804,0.1854,0.1853,0.1851,0.185,0.2037,0.2045,0.2054,0.2133,0,0,0.2081,0.2084,0,0,0,0,0,0,0,0,0.169,0.1696,0.1702,0.1706,0.1711,0.1804,0.1855,0.1915,0.1854,0.1806,0.1851,0.185,0.1965,0.1979,0.2013,0.2142,0.215,0.2081,0.2087,0.209,0.2093,0,0,0,0,0,0,0,0.1685,0.1692,0.1726,0.1703,0.1708,0.1774,0.1781,0.1867,0.1896,0.181,0.1813,0.1819,0.1968,0.2005,0.2018,0.2153,0.2081,0.2089,0.2094,0.2098,0.237,0.2372,0,0,0,0,0,0,0.1651,0.1686,0.1722,0.173,0.1691,0.1774,0.1783,0.178,0.1894,0.1908,0.182,0.1821,0.199,0.2008,0.2025,0.2159,0.209,0.2099,0.2104,0.2368,0.237,0.2372,0,0,0,0,0,0,0.1649,0.1653,0.1717,0.1707,0.1719,0.1774,0.1772,0.1783,0.1823,0.19,0.1916,0.1847,0.199,0.2013,0.2128,0.2165,0.2103,0.211,0.2366,0.2369,0.2371,0.2406,0,0,0,0,0,0,0.1648,0.1651,0.1648,0.1704,0.1718,0.1784,0.1773,0.1786,0.1825,0.1828,0.1929,0.1945,0.1991,0.2114,0.2136,0.2176,0.2117,0.2363,0.2367,0.237,0.2402,0.241,0.2416,0,0,0,0,0,0.1645,0.1645,0.1647,0.1652,0.1708,0.1785,0.1801,0.184,0.1827,0.1867,0.1934,0.1942,0.2152,0.2125,0.2149,0.2192,0.2361,0.2366,0.237,0.2399,0.2408,0.2416,0,0,0,0,0,0,0.1633,0.1652,0.1655,0.1661,0.1723,0.1792,0.1821,0.1844,0.1928,0.1928,0.199,0.2014,0.2129,0.2157,0.2124,0.2279,0.2249,0.2259,0.2263,0.2272,0.2279,0.2274,0.2125,0,0,0,0,0,0.1624,0.1624,0.1672,0.1683,0.1706,0.1764,0.1798,0.1831,0.1902,0.1935,0.2013,0.2086,0.2168,0.2214,0.2299,0.2394,0.2409,0.243,0.2437,0.2442,0.2455,0.2512,0.2525,0.2387,0.2387,0.2387,0,0,0.162,0.1632,0.1632,0.1681,0.1723,0.1801,0.1784,0.1843,0.1921,0.1947,0.2081,0.213,0.2202,0.2313,0.2362,0.2339,0.2489,0.2448,0.2452,0.2462,0.2519,0.2532,0.2544,0.239,0.239,0.2389,0,0,0.163,0.1627,0.1639,0.1699,0.1762,0.182,0.1836,0.1924,0.1971,0.2098,0.2127,0.2197,0.234,0.2392,0.2432,0.2528,0.2532,0.2543,0.2572,0.2628,0.264,0.265,0.2676,0.2689,0.2535,0.2536,0.2536,0,0.1629,0.1654,0.1665,0.1719,0.1783,0.183,0.1908,0.1978,0.2102,0.2143,0.2148,0.2324,0.238,0.2486,0.2516,0.2545,0.2565,0.2533,0.2636,0.2647,0.2657,0.2681,0.2695,0.2538,0.2537,0.2537,0.2537,0,0.1667,0.1705,0.1727,0.1812,0.1889,0.1962,0.2059,0.2136,0.2192,0.2253,0.2368,0.2441,0.2526,0.2552,0.2573,0.2665,0.2652,0.2645,0.261,0.2673,0.2695,0.2708,0.2541,0.254,0.2539,0.2539,0,0,0.1633,0.1731,0.1743,0.1809,0.1947,0.2019,0.2143,0.2264,0.232,0.2426,0.2501,0.2624,0.2615,0.2659,0.2675,0.272,0.2803,0.2711,0.2713,0.2727,0.2912,0.2708,0.2703,0.2813,0.2815,0.2818,0.2893,0,0.1673,0.1767,0.1827,0.1978,0.2052,0.2151,0.2265,0.2374,0.2452,0.254,0.2583,0.267,0.2669,0.2689,0.2742,0.2796,0.2842,0.2782,0.2857,0.2859,0.2663,0.2713,0.2474,0.2505,0.2906,0.2908,0.291,0,0.1701,0.1769,0.1884,0.2053,0.2094,0.2197,0.236,0.2468,0.2576,0.2621,0.2682,0.2714,0.28,0.2777,0.2901,0.2862,0.2897,0.2926,0.293,0.2738,0.268,0.2511,0.2513,0.2415,0.293,0.2928,0.2927,0,0.1668,0.1825,0.1915,0.1978,0.2161,0.2233,0.2345,0.2474,0.2551,0.2653,0.2686,0.2787,0.2825,0.2905,0.2942,0.2943,0.305,0.3057,0.2909,0.2895,0.2704,0.2665,0.2608,0.3149,0.3149,0.3149,0.3149,0,0.1688,0.1772,0.1898,0.1952,0.2086,0.2218,0.2346,0.2443,0.2554,0.2628,0.2704,0.2753,0.2861,0.2916,0.2967,0.295,0.307,0.2921,0.2904,0.2704,0.2667,0.258,0.2575,0.3152,0.3151,0.3151,0.315,0,0.1636,0.1715,0.1833,0.2002,0.2064,0.2154,0.2348,0.2424,0.2521,0.261,0.2639,0.2751,0.2813,0.2876,0.2989,0.2944,0.2852,0.2937,0.2666,0.2612,0.234,0.2346,0.2238,0.2195,0.2799,0.2795,0.2791,0,0.162,0.1658,0.1827,0.1902,0.1981,0.2128,0.2226,0.2384,0.2456,0.2597,0.2625,0.2701,0.2742,0.2785,0.2709,0.271,0.2701,0.2476,0.2425,0.2282,0.2282,0.2253,0.2228,0.2206,0.2198,0.2191,0.2186,0,0.1595,0.1631,0.1715,0.1851,0.1967,0.2111,0.225,0.2298,0.2459,0.2498,0.2564,0.2606,0.2586,0.2448,0.238,0.2354,0.2279,0.233,0.2281,0.1878,0.1753,0.1714,0.2198,0.2125,0.2131,0.2135,0.2139,0.2141,0.1566,0.16,0.1692,0.183,0.1958,0.2087,0.2152,0.2245,0.2321,0.2342,0.2441,0.2374,0.2214,0.2068,0.2023,0.1692,0.1869,0.1593,0.1638,0.1644,0.15,0.181,0.1643,0.1646,0.1648,0.1651,0.1653,0,0.1546,0.1588,0.169,0.1845,0.1954,0.2048,0.2166,0.2171,0.2176,0.215,0.2147,0.1875,0.1666,0.1516,0.116,0.1023,0.1029,0.0978,0.0925,0.0965,0.1306,0.1171,0.0771,0.0771,0.0771,0.0771,0.0771,0.0771,0.1543,0.1596,0.1646,0.1814,0.1917,0.2004,0.2045,0.2002,0.1952,0.174,0.1522,0.144,0.1224,0.0859,0.0576,0.0544,0.0558,0.0419,0.0595,0.0841,0.0903,0.0964,0.0834,0.037,0.0369,0.0147,0.0145,0.0143]},{"header":{"parameterUnit":"m.s-1","parameterCategory":2,"la1":30.2991,"la2":30.254,"lo1":-89.0895,"lo2":-89.0444,"dy":0.0017,"dx":0.0017,"nx":28,"ny":28,"refTime":"2024-04-15T03:00:00:Z","depth":"0","parameterNumber":3,"parameterNumberName":"V-component_of_CURRENTS"},"data":[0,0,0,0,0,0,0,0,0,0,0,0,0,0,0,0,0,0,0,0,0,0,0,0,0,0,0,0,0,0,0,0,0,0,0,0,0,0,0,0,0,0,0,0,0,0,0,0,0,0,0,0,0,0,0,0,0,0,0.0087,0.0087,0,0.0008,0.0006,0.0005,-0.0032,-0.0032,-0.0031,-0.0031,-0.0203,-0.0208,-0.0213,0,0,0,0,0,0,0,0,0,0,0,0,0,0.0116,0.0115,0.0087,0.0087,0.0086,0.0008,0.0006,0.0005,-0.0032,-0.0032,-0.0031,-0.003,-0.0201,-0.0207,-0.0213,0,0,0,0,0,0,0,0,0,0,0,0,0,0.0071,0.0115,0.0087,0.0063,0.006,0.0008,0.0006,0.0004,-0.0033,-0.0032,-0.0031,-0.003,-0.0199,-0.0207,-0.0214,-0.028,0,0,-0.0238,-0.0241,0,0,0,0,0,0,0,0,0.0074,0.0069,0.0067,0.0064,0.0061,0.0004,-0.0046,-0.0093,-0.0033,-0.0004,-0.0031,-0.0029,-0.0139,-0.0152,-0.0176,-0.0288,-0.0295,-0.0238,-0.0243,-0.0246,-0.0249,0,0,0,0,0,0,0,0.0077,0.0072,0.005,0.0066,0.0063,0.0025,0.002,-0.0056,-0.0082,-0.0006,-0.0008,-0.0007,-0.0142,-0.0168,-0.018,-0.0298,-0.0238,-0.0245,-0.025,-0.0253,-0.0412,-0.0412,0,0,0,0,0,0,0.0103,0.0075,0.0052,0.0048,0.0077,0.0025,0.0018,0.0016,-0.0079,-0.009,-0.0008,-0.0008,-0.0155,-0.0171,-0.0187,-0.0228,-0.0246,-0.0254,-0.0258,-0.0412,-0.0412,-0.0411,0,0,0,0,0,0,0.0103,0.0101,0.0055,0.0065,0.0057,0.0025,0.0022,0.0015,-0.0007,-0.0078,-0.0092,-0.002,-0.0155,-0.0176,-0.026,-0.0236,-0.0257,-0.0264,-0.0413,-0.0412,-0.0412,-0.0337,0,0,0,0,0,0,0.0104,0.0102,0.0101,0.0066,0.0058,0.0027,0.0021,0.0013,-0.0005,-0.0007,-0.0094,-0.0109,-0.0156,-0.0248,-0.0267,-0.0247,-0.027,-0.0413,-0.0413,-0.0412,-0.034,-0.0334,-0.0329,0,0,0,0,0,0.0105,0.0104,0.0101,0.0098,0.006,0.0027,0.0017,-0.0007,-0.0007,-0.0023,-0.0083,-0.0106,-0.0255,-0.0256,-0.0278,-0.0259,-0.0414,-0.0413,-0.0412,-0.0343,-0.0335,-0.0329,0,0,0,0,0,0,0.0112,0.01,0.0096,0.009,0.0064,0.0023,0.0012,-0.0005,-0.0066,-0.0067,-0.0134,-0.0155,-0.0209,-0.0254,-0.0252,-0.0299,-0.0326,-0.0329,-0.0265,-0.0259,-0.0253,-0.0212,-0.0277,0,0,0,0,0,0.0117,0.0115,0.0091,0.0085,0.0078,0.0045,0.0028,0.0011,-0.0038,-0.0061,-0.0125,-0.018,-0.0224,-0.0258,-0.0316,-0.0368,-0.0354,-0.0359,-0.0353,-0.0348,-0.0328,-0.0278,-0.0265,-0.0409,-0.0409,-0.0409,0,0,0.0119,0.0112,0.0111,0.0087,0.0068,0.0043,0.0035,0.0014,-0.001,-0.0075,-0.0139,-0.0177,-0.0236,-0.028,-0.0305,-0.0315,-0.0303,-0.0347,-0.0342,-0.0325,-0.0276,-0.0261,-0.0249,-0.0408,-0.0408,-0.0408,0,0,0.0125,0.0118,0.0119,0.0097,0.0076,0.0047,0.0045,0.0,-0.002,-0.0087,-0.0115,-0.0134,-0.0246,-0.0251,-0.0273,-0.0274,-0.0277,-0.0292,-0.0233,-0.0185,-0.0172,-0.016,-0.0129,-0.0115,-0.0285,-0.0285,-0.0285,0,0.0129,0.0126,0.0111,0.0101,0.0086,0.0052,0.0038,0.0003,-0.0067,-0.0066,-0.01,-0.0165,-0.0219,-0.0215,-0.0211,-0.0256,-0.0239,-0.0254,-0.0173,-0.0162,-0.0151,-0.0122,-0.0107,-0.0281,-0.0282,-0.0282,-0.0282,0,0.0132,0.0125,0.0123,0.0099,0.0074,0.0057,0.0018,-0.0008,-0.0036,-0.0053,-0.0062,-0.0119,-0.0136,-0.0151,-0.0193,-0.0133,-0.015,-0.0172,-0.0182,-0.0131,-0.0105,-0.0091,-0.0276,-0.0277,-0.0278,-0.0279,0,0,0.0152,0.0131,0.013,0.0127,0.0075,0.006,0.0027,0.001,0.003,-0.0026,0.001,-0.0045,-0.003,-0.0051,-0.0075,-0.0039,0.0042,-0.007,-0.007,-0.0024,0.0144,0.0151,0.0167,0.0037,0.004,0.0042,0.013,0,0.016,0.0155,0.0132,0.0111,0.0105,0.0069,0.005,0.0034,0.0022,0.004,0.0042,0.005,-0.0006,0.0012,0.004,0.0045,0.0083,0.002,0.0074,0.0076,0.009,0.0185,0.0195,0.0276,0.0143,0.0146,0.0147,0,0.0169,0.0167,0.0162,0.0147,0.0143,0.0123,0.0126,0.0106,0.013,0.0135,0.0167,0.0162,0.0209,0.0155,0.0214,0.0177,0.0171,0.017,0.0173,0.0169,0.0111,0.0203,0.0306,0.0294,0.0169,0.0167,0.0165,0,0.0205,0.0186,0.019,0.0178,0.0152,0.0159,0.0144,0.0153,0.0175,0.0221,0.0269,0.0297,0.0341,0.0344,0.0329,0.0283,0.0399,0.0334,0.0336,0.0335,0.035,0.0347,0.0466,0.0392,0.0392,0.0392,0.0391,0,0.0221,0.0223,0.0216,0.0218,0.024,0.0206,0.0247,0.0246,0.0288,0.036,0.034,0.042,0.0396,0.0441,0.0398,0.0431,0.0459,0.0383,0.0378,0.0373,0.037,0.0362,0.034,0.0395,0.0394,0.0393,0.0393,0,0.0255,0.0246,0.0258,0.0255,0.026,0.028,0.0304,0.0345,0.0375,0.0476,0.0503,0.055,0.0616,0.0581,0.0608,0.0545,0.0563,0.0546,0.0533,0.0526,0.0494,0.0473,0.0601,0.0624,0.0572,0.0573,0.0574,0,0.0269,0.0282,0.03,0.032,0.0322,0.0349,0.0379,0.0394,0.0452,0.0569,0.0638,0.0722,0.0811,0.084,0.0749,0.0706,0.0652,0.0656,0.0571,0.0539,0.0513,0.0494,0.0501,0.0613,0.0614,0.0615,0.0616,0,0.0301,0.0314,0.0328,0.0378,0.0412,0.0454,0.0504,0.0567,0.0622,0.0731,0.0889,0.0974,0.099,0.0975,0.0882,0.082,0.0671,0.0673,0.0662,0.0595,0.0565,0.0567,0.0488,0.0624,0.0623,0.0623,0.0622,0.0622,0.0331,0.0355,0.0387,0.0433,0.048,0.0561,0.063,0.0715,0.0848,0.1029,0.1076,0.1211,0.1128,0.1018,0.0949,0.0775,0.0763,0.0697,0.0686,0.0678,0.0683,0.0618,0.0729,0.0729,0.0729,0.0729,0.0729,0,0.0359,0.039,0.0437,0.0503,0.0571,0.0588,0.0715,0.0816,0.1008,0.1155,0.1307,0.1301,0.124,0.1085,0.0859,0.0788,0.0749,0.0742,0.0716,0.0731,0.0699,0.0681,0.0762,0.0762,0.0762,0.0762,0.0762,0.0762,0.0377,0.0424,0.0452,0.057,0.0627,0.0753,0.0843,0.1016,0.1144,0.1332,0.1373,0.1381,0.123,0.0979,0.082,0.0781,0.0766,0.0752,0.0757,0.0706,0.0699,0.0694,0.0673,0.0751,0.0751,0.0794,0.0794,0.0794]}],[{"header":{"parameterUnit":"m.s-1","parameterCategory":2,"la1":30.2991,"la2":30.254,"lo1":-89.0895,"lo2":-89.0444,"dy":0.0017,"dx":0.0017,"nx":28,"ny":28,"refTime":"2024-04-15T03:00:00:Z","depth":"2","parameterNumber":2,"parameterNumberName":"U-component_of_CURRENTS"},"data":[0,0,0,0,0,0,0,0,0,0,0,0,0,0,0,0,0,0,0,0,0,0,0,0,0,0,0,0,0,0,0,0,0,0,0,0,0,0,0,0,0,0,0,0,0,0,0,0,0,0,0,0,0,0,0,0,0,0,0.1415,0.1415,0,0.1501,0.1503,0.1505,0.1521,0.152,0.1518,0.1516,0.1535,0.1537,0.1539,0,0,0,0,0,0,0,0,0,0,0,0,0,0.1434,0.1434,0.1415,0.1415,0.1415,0.1501,0.1503,0.1505,0.1522,0.152,0.1518,0.1516,0.1535,0.1537,0.154,0,0,0,0,0,0,0,0,0,0,0,0,0,0.1474,0.1434,0.1415,0.1425,0.1426,0.15,0.1503,0.1506,0.1522,0.152,0.1517,0.1515,0.1534,0.1537,0.154,0.1612,0,0,0.155,0.1551,0,0,0,0,0,0,0,0,0.1472,0.1475,0.1424,0.1424,0.1425,0.1488,0.1516,0.1534,0.1523,0.1498,0.1516,0.1513,0.1508,0.1513,0.1552,0.1612,0.1613,0.155,0.1552,0.1553,0.1554,0,0,0,0,0,0,0,0.1469,0.1472,0.1461,0.1424,0.1425,0.1482,0.1485,0.1522,0.1524,0.15,0.1498,0.1491,0.1509,0.1549,0.1552,0.1614,0.155,0.1553,0.1555,0.1556,0.1717,0.1719,0,0,0,0,0,0,0.1429,0.1469,0.1458,0.1462,0.143,0.1483,0.1486,0.148,0.1525,0.1527,0.1493,0.1491,0.1545,0.1549,0.1553,0.1616,0.1553,0.1556,0.1558,0.1714,0.1717,0.172,0,0,0,0,0,0,0.1429,0.1427,0.1454,0.1458,0.1464,0.1482,0.1477,0.1483,0.1505,0.1518,0.152,0.1505,0.1543,0.1548,0.1597,0.1617,0.1558,0.1561,0.1711,0.1715,0.1718,0.1757,0,0,0,0,0,0,0.143,0.1427,0.1427,0.1455,0.1462,0.1461,0.1478,0.1486,0.1499,0.1498,0.153,0.153,0.1542,0.1592,0.16,0.162,0.1563,0.1708,0.1713,0.1717,0.1753,0.1762,0.1769,0,0,0,0,0,0.143,0.1429,0.1427,0.1426,0.1455,0.1459,0.1469,0.1483,0.1502,0.15,0.1555,0.1528,0.1625,0.1598,0.1606,0.1627,0.1706,0.1712,0.1717,0.175,0.176,0.1769,0,0,0,0,0,0,0.144,0.1431,0.1429,0.1426,0.1422,0.1456,0.1474,0.1484,0.1534,0.1557,0.1569,0.1574,0.1619,0.163,0.1599,0.169,0.1658,0.1665,0.168,0.169,0.1698,0.1728,0.1566,0,0,0,0,0,0.144,0.1435,0.1428,0.1425,0.1429,0.1458,0.147,0.1482,0.1518,0.1539,0.1558,0.1606,0.1657,0.1674,0.171,0.1768,0.1788,0.1787,0.1795,0.1801,0.1834,0.191,0.1928,0.1737,0.1737,0.1737,0,0,0.1442,0.1437,0.1434,0.1427,0.1448,0.1479,0.1462,0.1485,0.1534,0.1536,0.1614,0.1629,0.1679,0.1742,0.1763,0.1748,0.1858,0.1808,0.1813,0.1844,0.1918,0.1936,0.1953,0.1741,0.174,0.1739,0,0,0.1449,0.1443,0.1447,0.145,0.1462,0.1496,0.1493,0.1524,0.1557,0.163,0.1651,0.1687,0.1756,0.1795,0.183,0.1911,0.1895,0.1904,0.1973,0.2046,0.2062,0.2077,0.2082,0.2097,0.1911,0.1911,0.1911,0,0.1456,0.1468,0.1448,0.1461,0.1488,0.1501,0.154,0.1588,0.1632,0.1671,0.1655,0.1778,0.1797,0.1895,0.1929,0.1928,0.1949,0.1925,0.2056,0.2071,0.2085,0.2087,0.2104,0.1914,0.1913,0.1913,0.1913,0,0.1466,0.149,0.15,0.1534,0.1552,0.159,0.1634,0.1677,0.1727,0.1764,0.1843,0.1882,0.1946,0.1952,0.198,0.2084,0.2055,0.205,0.2025,0.2107,0.2103,0.2119,0.1917,0.1916,0.1916,0.1915,0,0,0.146,0.1505,0.151,0.155,0.1607,0.1626,0.1723,0.1803,0.1867,0.1909,0.1988,0.2075,0.2063,0.2105,0.2107,0.2179,0.2278,0.2171,0.2173,0.2166,0.2403,0.2168,0.2162,0.23,0.2304,0.2308,0.2342,0,0.1494,0.1542,0.1564,0.1649,0.1694,0.1746,0.1824,0.1893,0.1958,0.2028,0.2081,0.2146,0.2131,0.2154,0.2228,0.2276,0.2332,0.2267,0.2336,0.2337,0.2112,0.2177,0.1982,0.1979,0.2357,0.236,0.2362,0,0.1502,0.1548,0.1615,0.1724,0.1748,0.1801,0.1929,0.1999,0.21,0.2143,0.2208,0.2228,0.2331,0.2303,0.2432,0.2394,0.2418,0.2442,0.2443,0.2233,0.2134,0.1971,0.1994,0.2388,0.2386,0.2384,0.2382,0,0.1491,0.1594,0.1657,0.1684,0.1791,0.185,0.1932,0.2028,0.2093,0.2208,0.2241,0.2348,0.2384,0.2477,0.2491,0.2496,0.2603,0.2605,0.2406,0.2387,0.2239,0.2198,0.2711,0.2711,0.2711,0.2711,0.2711,0,0.151,0.1568,0.1658,0.1681,0.1774,0.1855,0.1955,0.2033,0.2147,0.2205,0.2283,0.2315,0.244,0.2483,0.2529,0.248,0.2624,0.2434,0.2398,0.2236,0.2197,0.2577,0.2561,0.2712,0.2712,0.2711,0.2711,0,0.1468,0.1523,0.1598,0.1718,0.175,0.1812,0.195,0.2029,0.2125,0.2203,0.224,0.2327,0.2355,0.2405,0.2517,0.247,0.2489,0.2429,0.2181,0.2113,0.2223,0.221,0.2258,0.225,0.2244,0.2238,0.2234,0,0.1452,0.1475,0.1574,0.162,0.1676,0.1781,0.1851,0.1989,0.2062,0.2177,0.2204,0.2245,0.2203,0.2212,0.2177,0.2158,0.2296,0.1949,0.1924,0.2226,0.2187,0.2183,0.2178,0.1745,0.1737,0.173,0.1725,0,0.1429,0.1445,0.1498,0.1566,0.1642,0.1732,0.1847,0.1881,0.2025,0.2056,0.2073,0.2046,0.1988,0.1835,0.1756,0.174,0.1939,0.1803,0.2245,0.1847,0.1733,0.1697,0.1712,0.1665,0.1671,0.1676,0.1679,0.1681,0.1404,0.142,0.1462,0.1528,0.1614,0.1675,0.1701,0.177,0.1798,0.1792,0.186,0.1728,0.1692,0.1433,0.1366,0.1325,0.1487,0.1453,0.148,0.1512,0.1404,0.1281,0.1106,0.1108,0.1111,0.1113,0.1115,0,0.138,0.1392,0.1441,0.1499,0.1554,0.1628,0.1691,0.1651,0.1586,0.1561,0.1499,0.127,0.109,0.1083,0.0909,0.0863,0.0934,0.0834,0.0947,0.1003,0.1053,0.093,0.0502,0.0501,0.05,0.0498,0,0,0.137,0.1375,0.1384,0.1418,0.1476,0.1491,0.1503,0.1385,0.1319,0.1145,0.1043,0.1035,0.1027,0.0772,0.0705,0.0584,0.0807,0.0542,0.1027,0.1217,0.1267,0.1386,0.1251,0,0,0,0,0]},{"header":{"parameterUnit":"m.s-1","parameterCategory":2,"la1":30.2991,"la2":30.254,"lo1":-89.0895,"lo2":-89.0444,"dy":0.0017,"dx":0.0017,"nx":28,"ny":28,"refTime":"2024-04-15T03:00:00:Z","depth":"2","parameterNumber":3,"parameterNumberName":"V-component_of_CURRENTS"},"data":[0,0,0,0,0,0,0,0,0,0,0,0,0,0,0,0,0,0,0,0,0,0,0,0,0,0,0,0,0,0,0,0,0,0,0,0,0,0,0,0,0,0,0,0,0,0,0,0,0,0,0,0,0,0,0,0,0,0,-0.0011,-0.0011,0,-0.0088,-0.009,-0.0091,-0.0121,-0.012,-0.0119,-0.0118,-0.0259,-0.0264,-0.0268,0,0,0,0,0,0,0,0,0,0,0,0,0,0.0022,0.0021,-0.0011,-0.0011,-0.0012,-0.0088,-0.009,-0.0091,-0.0121,-0.012,-0.0119,-0.0118,-0.0258,-0.0263,-0.0269,0,0,0,0,0,0,0,0,0,0,0,0,0,-0.0024,0.0021,-0.0011,-0.0031,-0.0033,-0.0088,-0.009,-0.0092,-0.0121,-0.012,-0.0119,-0.0118,-0.0256,-0.0263,-0.0269,-0.0336,0,0,-0.029,-0.0293,0,0,0,0,0,0,0,0,-0.0021,-0.0026,-0.0028,-0.0029,-0.0032,-0.0088,-0.0129,-0.0174,-0.0122,-0.0095,-0.0118,-0.0117,-0.0205,-0.0216,-0.0241,-0.0342,-0.0348,-0.0291,-0.0295,-0.0298,-0.03,0,0,0,0,0,0,0,-0.0018,-0.0023,-0.0048,-0.0028,-0.003,-0.0066,-0.0071,-0.0139,-0.0162,-0.0097,-0.0098,-0.0096,-0.0207,-0.0235,-0.0245,-0.0351,-0.0291,-0.0297,-0.0301,-0.0303,-0.0449,-0.0449,0,0,0,0,0,0,0.0008,-0.002,-0.0046,-0.005,-0.0016,-0.0067,-0.0073,-0.0077,-0.016,-0.0169,-0.0097,-0.0097,-0.0224,-0.0237,-0.025,-0.029,-0.0298,-0.0304,-0.0308,-0.0449,-0.0449,-0.0449,0,0,0,0,0,0,0.0009,0.0006,-0.0042,-0.0031,-0.0039,-0.0067,-0.0072,-0.0078,-0.0095,-0.0158,-0.0169,-0.0104,-0.0223,-0.024,-0.0309,-0.0297,-0.0307,-0.0313,-0.0449,-0.0449,-0.0449,-0.0397,0,0,0,0,0,0,0.001,0.0007,0.0006,-0.0029,-0.0038,-0.0056,-0.0073,-0.0081,-0.0093,-0.0094,-0.0169,-0.0181,-0.0224,-0.0298,-0.0315,-0.0306,-0.0319,-0.045,-0.0449,-0.0449,-0.0399,-0.0395,-0.0392,0,0,0,0,0,0.0011,0.0009,0.0006,0.0004,-0.0036,-0.0055,-0.0064,-0.0085,-0.0094,-0.0098,-0.0158,-0.0178,-0.0306,-0.0305,-0.0325,-0.0317,-0.045,-0.0449,-0.0449,-0.0401,-0.0396,-0.0392,0,0,0,0,0,0,0.002,0.0005,0.0002,-0.0005,-0.0018,-0.0057,-0.0067,-0.0081,-0.0133,-0.0144,-0.0201,-0.0219,-0.0264,-0.0304,-0.0301,-0.0354,-0.0372,-0.0375,-0.0328,-0.0324,-0.032,-0.0288,-0.0324,0,0,0,0,0,0.0024,0.002,0.0004,-0.0,-0.0005,-0.0036,-0.0049,-0.0065,-0.0109,-0.013,-0.0181,-0.0236,-0.0282,-0.0313,-0.0363,-0.0415,-0.0394,-0.0414,-0.041,-0.0407,-0.0392,-0.0355,-0.0346,-0.0447,-0.0447,-0.0447,0,0,0.0027,0.0019,0.0017,0.0002,-0.0016,-0.0032,-0.0043,-0.0061,-0.008,-0.0141,-0.0194,-0.0233,-0.0292,-0.0338,-0.036,-0.037,-0.0363,-0.0406,-0.0403,-0.039,-0.0354,-0.0343,-0.0334,-0.0447,-0.0447,-0.0447,0,0,0.0032,0.0024,0.0024,0.0014,-0.0002,-0.0028,-0.0026,-0.0065,-0.0083,-0.0143,-0.0174,-0.0197,-0.03,-0.0312,-0.0339,-0.0346,-0.0343,-0.0365,-0.0329,-0.0293,-0.0284,-0.0276,-0.0215,-0.0202,-0.0366,-0.0365,-0.0365,0,0.0037,0.003,0.0021,0.0016,0.0007,-0.0021,-0.003,-0.0061,-0.0118,-0.0117,-0.0152,-0.0226,-0.0278,-0.0289,-0.0297,-0.0333,-0.0312,-0.0342,-0.0285,-0.0277,-0.0269,-0.021,-0.0195,-0.0363,-0.0363,-0.0363,-0.0364,0,0.004,0.0034,0.0032,0.0015,0.0004,-0.0011,-0.004,-0.0057,-0.0091,-0.0107,-0.0124,-0.0188,-0.0214,-0.0233,-0.0286,-0.025,-0.025,-0.028,-0.029,-0.0255,-0.0195,-0.0181,-0.0359,-0.036,-0.0361,-0.0362,0,0,0.0054,0.0037,0.0038,0.0038,0.0,-0.0003,-0.003,-0.004,-0.0023,-0.0079,-0.0051,-0.0128,-0.0127,-0.0155,-0.0191,-0.0175,-0.0108,-0.0213,-0.0213,-0.014,-0.0009,-0.0047,-0.0035,-0.0136,-0.0134,-0.0132,0.0019,0,0.0059,0.0057,0.0041,0.0033,0.0028,0.0005,-0.0004,-0.0011,-0.0028,-0.001,-0.0032,-0.0038,-0.0108,-0.0112,-0.0105,-0.0107,-0.0074,-0.0145,-0.0065,-0.0062,-0.0089,-0.0022,-0.0024,0.0105,0.0033,0.0035,0.0037,0,0.0069,0.0066,0.0065,0.0063,0.0063,0.0054,0.0068,0.005,0.0072,0.0071,0.008,0.0064,0.0081,0.0011,0.0055,0.0009,0.0005,0.0004,0.0009,-0.0034,-0.0075,0.0052,0.0133,0.006,0.0058,0.0056,0.0055,0,0.0098,0.0086,0.0089,0.0084,0.0075,0.0084,0.007,0.0087,0.0105,0.0133,0.0169,0.0181,0.0202,0.0194,0.0163,0.0117,0.0224,0.0169,0.0148,0.0147,0.0158,0.0152,0.0219,0.0219,0.0219,0.0219,0.0218,0,0.011,0.0116,0.0109,0.0115,0.0141,0.0116,0.0155,0.0155,0.0187,0.0251,0.0215,0.029,0.0244,0.0282,0.0236,0.0247,0.0291,0.0185,0.0187,0.0175,0.0169,0.0124,0.0111,0.0224,0.0223,0.0222,0.0221,0,0.0142,0.0132,0.0145,0.0148,0.0157,0.0172,0.0196,0.0239,0.0249,0.0335,0.0348,0.0402,0.0449,0.0405,0.0428,0.0361,0.0359,0.0348,0.0343,0.0339,0.0248,0.0236,0.0367,0.0367,0.0367,0.0367,0.0367,0,0.0155,0.0165,0.0183,0.0203,0.0205,0.0228,0.0264,0.0272,0.0327,0.0425,0.0492,0.0551,0.0618,0.0629,0.0528,0.0474,0.0424,0.0419,0.0312,0.0277,0.0266,0.0253,0.0241,0.0372,0.0372,0.0372,0.0372,0,0.0183,0.0193,0.0208,0.0253,0.029,0.0342,0.0388,0.0448,0.0492,0.0588,0.0741,0.0797,0.0771,0.0725,0.059,0.0533,0.0414,0.0415,0.0426,0.0301,0.0284,0.027,0.0259,0.0372,0.0372,0.0372,0.0372,0.0372,0.021,0.023,0.0259,0.0303,0.0359,0.0454,0.0518,0.061,0.0737,0.0858,0.0905,0.0949,0.085,0.0669,0.0583,0.0447,0.0443,0.0372,0.0372,0.0372,0.0312,0.0291,0.0373,0.0373,0.0373,0.0373,0.0373,0,0.0234,0.0259,0.0305,0.0372,0.0457,0.0473,0.0609,0.0698,0.0883,0.0943,0.1041,0.0918,0.0835,0.0689,0.0497,0.0396,0.0375,0.0348,0.0346,0.0347,0.0347,0.0284,0.034,0.034,0.034,0.0339,0,0,0.0247,0.0286,0.0309,0.0443,0.0505,0.0647,0.0737,0.0881,0.0954,0.1042,0.102,0.0977,0.0824,0.0671,0.055,0.0446,0.0412,0.0415,0.0452,0.0467,0.0468,0.0374,0.0279,0,0,0,0,0]}],[{"header":{"parameterUnit":"m.s-1","parameterCategory":2,"la1":30.2991,"la2":30.254,"lo1":-89.0895,"lo2":-89.0444,"dy":0.0017,"dx":0.0017,"nx":28,"ny":28,"refTime":"2024-04-15T03:00:00:Z","depth":"4","parameterNumber":2,"parameterNumberName":"U-component_of_CURRENTS"},"data":[0,0,0,0,0,0,0,0,0,0,0,0,0,0,0,0,0,0,0,0,0,0,0,0,0,0,0,0,0,0,0,0,0,0,0,0,0,0,0,0,0,0,0,0,0,0,0,0,0,0,0,0,0,0,0,0,0,0,0.0756,0.0755,0,0.0543,0.0539,0.0536,0.0479,0.0481,0.0483,0.0485,0.0299,0.0293,0.0286,0,0,0,0,0,0,0,0,0,0,0,0,0,0.088,0.0879,0.0756,0.0754,0.0753,0.0543,0.0539,0.0535,0.0479,0.0481,0.0484,0.0486,0.0302,0.0293,0.0285,0,0,0,0,0,0,0,0,0,0,0,0,0,0.0754,0.0879,0.0757,0.0706,0.07,0.0544,0.0539,0.0534,0.0478,0.0481,0.0485,0.0487,0.0304,0.0294,0.0284,0.0156,0,0,0.0252,0.0248,0,0,0,0,0,0,0,0,0.0762,0.0749,0.0715,0.0709,0.0702,0.0549,0.0515,0.0412,0.0477,0.0552,0.0485,0.0489,0.0389,0.0372,0.0311,0.0147,0.0139,0.0251,0.0245,0.024,0.0238,0,0,0,0,0,0,0,0.0771,0.0756,0.0662,0.0713,0.0705,0.0614,0.0601,0.0493,0.0449,0.0546,0.0544,0.0534,0.0385,0.0321,0.0306,0.0137,0.0252,0.0242,0.0236,0.0232,0.0173,0.0177,0,0,0,0,0,0,0.0824,0.0766,0.0669,0.0657,0.0751,0.0611,0.0595,0.0587,0.0449,0.0434,0.0531,0.0532,0.0337,0.0319,0.03,0.0317,0.0241,0.0231,0.0225,0.0168,0.0174,0.0179,0,0,0,0,0,0,0.0828,0.0818,0.0678,0.0713,0.0691,0.0608,0.0597,0.0582,0.0547,0.0439,0.0423,0.0519,0.0339,0.0314,0.0225,0.0304,0.0226,0.0217,0.0163,0.017,0.0177,0.0238,0,0,0,0,0,0,0.0832,0.082,0.0829,0.0718,0.0691,0.0595,0.0595,0.0576,0.0539,0.0538,0.0422,0.0407,0.0339,0.0241,0.0215,0.0288,0.0209,0.0157,0.0166,0.0174,0.0231,0.0247,0.0261,0,0,0,0,0,0.0837,0.0838,0.0831,0.082,0.0708,0.0595,0.057,0.0516,0.0536,0.05,0.044,0.0412,0.0285,0.023,0.02,0.0273,0.0153,0.0164,0.0174,0.0224,0.0244,0.026,0,0,0,0,0,0,0.0887,0.0829,0.082,0.0803,0.0715,0.059,0.0566,0.0527,0.0444,0.0466,0.0377,0.0353,0.0338,0.0293,0.0237,0.0304,0.0252,0.0256,0.0301,0.0319,0.0333,0.0336,0.02,0,0,0,0,0,0.0907,0.0902,0.0811,0.0795,0.0767,0.0671,0.0625,0.0583,0.05,0.0468,0.0388,0.036,0.0349,0.0319,0.0277,0.0233,0.0227,0.0302,0.0317,0.0329,0.0324,0.0375,0.0392,0.0214,0.0214,0.0213,0,0,0.0922,0.0892,0.0888,0.0806,0.0746,0.0659,0.0649,0.059,0.0533,0.0459,0.0373,0.0376,0.0351,0.034,0.0338,0.0307,0.0386,0.0343,0.0352,0.034,0.0388,0.0404,0.0419,0.0221,0.0219,0.0218,0,0,0.0927,0.0926,0.0911,0.0835,0.076,0.0681,0.0675,0.0561,0.0543,0.0448,0.0453,0.0476,0.0385,0.0402,0.0404,0.047,0.0463,0.0531,0.058,0.0631,0.0644,0.0655,0.0682,0.0695,0.0536,0.0536,0.0536,0,0.095,0.0901,0.088,0.0821,0.0759,0.0697,0.0624,0.057,0.0442,0.0455,0.0446,0.0451,0.0418,0.0468,0.0527,0.0497,0.0529,0.0494,0.0644,0.0655,0.0665,0.0689,0.0703,0.054,0.054,0.054,0.0539,0,0.091,0.0862,0.0843,0.075,0.0685,0.0608,0.0537,0.0509,0.0499,0.0464,0.0519,0.0491,0.052,0.0563,0.0546,0.0664,0.0664,0.0649,0.0577,0.0686,0.0706,0.0719,0.0547,0.0545,0.0544,0.0543,0,0,0.0955,0.0839,0.0828,0.0753,0.0639,0.056,0.0536,0.048,0.0506,0.0471,0.0525,0.0557,0.062,0.0634,0.0673,0.0723,0.0828,0.0738,0.0739,0.0727,0.095,0.0845,0.0849,0.0855,0.0857,0.086,0.0935,0,0.0911,0.0804,0.0753,0.0602,0.0522,0.0479,0.0455,0.0433,0.0448,0.0485,0.0573,0.0625,0.0628,0.0704,0.0756,0.0811,0.0866,0.0808,0.0878,0.0879,0.0742,0.0861,0.0868,0.0944,0.0947,0.0949,0.095,0,0.0868,0.0792,0.0685,0.054,0.0511,0.0428,0.0416,0.0387,0.0479,0.0539,0.0644,0.0702,0.0808,0.0806,0.0915,0.0892,0.094,0.0965,0.0968,0.085,0.0799,0.0817,0.0973,0.0971,0.0969,0.0968,0.0967,0,0.0896,0.072,0.064,0.0577,0.0441,0.0426,0.0374,0.0429,0.0467,0.0605,0.0681,0.0791,0.0875,0.0946,0.1001,0.099,0.1108,0.1083,0.1025,0.1017,0.105,0.1037,0.1174,0.1174,0.1173,0.1173,0.1173,0,0.0848,0.0759,0.0639,0.058,0.0498,0.0428,0.0423,0.0447,0.0546,0.061,0.0724,0.0807,0.0925,0.0999,0.1041,0.1062,0.1136,0.1048,0.1039,0.1081,0.107,0.1059,0.1045,0.1176,0.1175,0.1175,0.1174,0,0.0878,0.0806,0.0682,0.0551,0.0512,0.0468,0.0417,0.043,0.0545,0.065,0.0713,0.0851,0.0937,0.1011,0.1122,0.1092,0.1132,0.1128,0.1167,0.1156,0.0998,0.0987,0.1066,0.1063,0.1061,0.1059,0.1057,0,0.0869,0.0831,0.0696,0.0623,0.0546,0.0474,0.0446,0.0473,0.0495,0.0652,0.0698,0.0836,0.0916,0.0981,0.1054,0.1113,0.1104,0.1114,0.106,0.1009,0.0992,0.0985,0.0978,0.1054,0.1053,0.1052,0.1052,0,0.0847,0.0845,0.0758,0.0638,0.0544,0.0438,0.0384,0.0422,0.0487,0.0595,0.0696,0.0776,0.0862,0.0933,0.0993,0.1028,0.1096,0.1088,0.1093,0.1042,0.0994,0.0979,0.0974,0.1043,0.1045,0.1045,0.1046,0,0.0849,0.0807,0.0729,0.0588,0.0484,0.0376,0.0366,0.0345,0.039,0.0571,0.0599,0.0739,0.0851,0.0889,0.0937,0.0966,0.0948,0.0916,0.0929,0.0939,0.0861,0.0779,0.0771,0,0,0,0,0,0.0823,0.0762,0.0651,0.048,0.0379,0.0315,0.0289,0.0302,0.0403,0.0457,0.0533,0.0619,0.0716,0.0777,0.0784,0.0856,0.0932,0.0856,0.0896,0.0997,0.1007,0.0925,0,0,0,0,0,0,0.0793,0.0732,0.0644,0.0403,0.0289,0.0165,0.0158,0.0226,0.0257,0.04,0.0457,0.0564,0.0662,0.0717,0.0772,0.0789,0.0795,0.0939,0.0936,0.0992,0.1001,0.1008,0.0927,0,0,0,0,0]},{"header":{"parameterUnit":"m.s-1","parameterCategory":2,"la1":30.2991,"la2":30.254,"lo1":-89.0895,"lo2":-89.0444,"dy":0.0017,"dx":0.0017,"nx":28,"ny":28,"refTime":"2024-04-15T03:00:00:Z","depth":"4","parameterNumber":3,"parameterNumberName":"V-component_of_CURRENTS"},"data":[0,0,0,0,0,0,0,0,0,0,0,0,0,0,0,0,0,0,0,0,0,0,0,0,0,0,0,0,0,0,0,0,0,0,0,0,0,0,0,0,0,0,0,0,0,0,0,0,0,0,0,0,0,0,0,0,0,0,0.0052,0.0053,0,0.014,0.0141,0.0143,0.0182,0.0181,0.018,0.0179,0.0363,0.0369,0.0374,0,0,0,0,0,0,0,0,0,0,0,0,0,0.0047,0.0046,0.0052,0.0053,0.0053,0.014,0.0142,0.0144,0.0182,0.0181,0.018,0.0179,0.0361,0.0368,0.0375,0,0,0,0,0,0,0,0,0,0,0,0,0,0.0091,0.0046,0.0052,0.0076,0.0079,0.0139,0.0142,0.0144,0.0182,0.0181,0.0179,0.0178,0.0359,0.0367,0.0376,0.0455,0,0,0.0402,0.0406,0,0,0,0,0,0,0,0,0.0088,0.0092,0.0073,0.0075,0.0077,0.0141,0.0207,0.025,0.0182,0.0152,0.0179,0.0177,0.0294,0.0307,0.0337,0.0464,0.0472,0.0403,0.0408,0.0412,0.0414,0,0,0,0,0,0,0,0.0085,0.0089,0.0095,0.0073,0.0076,0.0126,0.0131,0.0216,0.0237,0.0154,0.0155,0.0152,0.0297,0.0329,0.0342,0.0474,0.0403,0.041,0.0415,0.0419,0.0657,0.0658,0,0,0,0,0,0,0.0052,0.0085,0.0092,0.0097,0.007,0.0126,0.0132,0.0129,0.0234,0.0246,0.0153,0.0153,0.0315,0.0332,0.0349,0.0459,0.0412,0.042,0.0425,0.0655,0.0657,0.0658,0,0,0,0,0,0,0.0052,0.0052,0.0089,0.0087,0.0094,0.0126,0.0124,0.0131,0.0155,0.0231,0.0246,0.0166,0.0314,0.0336,0.0458,0.0466,0.0424,0.0431,0.0654,0.0656,0.0657,0.0674,0,0,0,0,0,0,0.0051,0.0051,0.0051,0.0084,0.0092,0.013,0.0124,0.0133,0.0151,0.0153,0.0248,0.0263,0.0315,0.0445,0.0466,0.0477,0.0438,0.0653,0.0655,0.0657,0.0672,0.0676,0.068,0,0,0,0,0,0.0051,0.0049,0.0051,0.0052,0.0087,0.013,0.0142,0.0166,0.0153,0.018,0.026,0.026,0.0471,0.0455,0.0479,0.0492,0.0651,0.0654,0.0657,0.067,0.0675,0.068,0,0,0,0,0,0,0.0051,0.0053,0.0056,0.0056,0.0092,0.0134,0.0151,0.0163,0.0244,0.0244,0.0314,0.0339,0.0434,0.047,0.0449,0.0563,0.0546,0.0553,0.0547,0.0553,0.0556,0.0525,0.0445,0,0,0,0,0,0.0047,0.0046,0.0068,0.0073,0.0082,0.0116,0.0136,0.0151,0.0214,0.0245,0.032,0.0391,0.0466,0.0515,0.0588,0.068,0.0647,0.069,0.0693,0.0697,0.0686,0.0633,0.063,0.0667,0.0667,0.0667,0,0,0.0049,0.0049,0.005,0.0074,0.0097,0.0141,0.0128,0.0153,0.021,0.0257,0.0372,0.0418,0.0494,0.0591,0.0631,0.0623,0.0675,0.07,0.0702,0.0689,0.0636,0.0631,0.0628,0.0669,0.0668,0.0668,0,0,0.0054,0.005,0.0055,0.0087,0.0112,0.0148,0.0151,0.0203,0.0244,0.0365,0.0388,0.0433,0.0596,0.0617,0.0656,0.0723,0.0695,0.0746,0.0751,0.0701,0.0696,0.0692,0.0661,0.0653,0.0749,0.0749,0.0749,0,0.0057,0.0071,0.007,0.0096,0.0139,0.015,0.0201,0.025,0.0346,0.0383,0.0408,0.0546,0.0598,0.066,0.0689,0.0725,0.0708,0.073,0.0702,0.0696,0.0691,0.0661,0.0652,0.075,0.075,0.075,0.075,0,0.0078,0.01,0.0108,0.0154,0.0206,0.0244,0.0308,0.0364,0.0418,0.0457,0.0536,0.0599,0.0664,0.0678,0.0728,0.0715,0.0718,0.0707,0.0681,0.0688,0.0657,0.0647,0.0752,0.0751,0.0751,0.0751,0,0,0.0069,0.0113,0.0122,0.0166,0.0243,0.0292,0.0383,0.0466,0.0496,0.0576,0.0626,0.0712,0.0685,0.0723,0.0734,0.0697,0.0656,0.0702,0.0699,0.0656,0.0566,0.056,0.0549,0.0646,0.0644,0.0642,0.0563,0,0.0097,0.0147,0.0186,0.0288,0.0332,0.0398,0.0487,0.0557,0.0612,0.0663,0.0666,0.0722,0.072,0.074,0.07,0.0668,0.0631,0.0679,0.0579,0.0575,0.0555,0.0538,0.0637,0.0556,0.0554,0.0552,0.0551,0,0.0122,0.0156,0.0233,0.0354,0.0382,0.0457,0.0578,0.0659,0.0704,0.0741,0.0744,0.0745,0.0722,0.0714,0.062,0.0659,0.0619,0.0578,0.0573,0.055,0.0551,0.0545,0.0533,0.0535,0.0536,0.0537,0.0538,0,0.0119,0.0214,0.0278,0.0317,0.0434,0.0506,0.0598,0.0669,0.0735,0.0766,0.0779,0.0745,0.0734,0.0661,0.0595,0.0612,0.0478,0.0482,0.0431,0.0431,0.0451,0.0457,0.04,0.04,0.04,0.04,0.04,0,0.0145,0.0207,0.0275,0.0311,0.0424,0.0516,0.0632,0.0693,0.0759,0.0798,0.0799,0.0787,0.0719,0.0647,0.0585,0.0475,0.0461,0.0418,0.04,0.0466,0.0474,0.0445,0.0452,0.0397,0.0398,0.0398,0.0399,0,0.0139,0.0171,0.0247,0.0359,0.0417,0.0498,0.0687,0.0748,0.0792,0.0835,0.0849,0.0815,0.0719,0.0637,0.0512,0.0457,0.0357,0.0326,0.0409,0.04,0.0351,0.0359,0.0253,0.0252,0.0251,0.0251,0.025,0,0.0142,0.0163,0.0267,0.0326,0.0388,0.0533,0.0638,0.0761,0.0809,0.0836,0.0832,0.0772,0.0735,0.0541,0.0465,0.0332,0.0321,0.0273,0.0304,0.0337,0.033,0.0341,0.035,0.0248,0.0248,0.0248,0.0248,0,0.0154,0.0163,0.0215,0.0318,0.0429,0.057,0.0709,0.0742,0.0842,0.0868,0.0809,0.0742,0.0635,0.052,0.0425,0.0332,0.0302,0.0263,0.0265,0.0294,0.033,0.0326,0.0337,0.0245,0.0245,0.0245,0.0245,0,0.0157,0.0178,0.0225,0.0332,0.0456,0.0567,0.0658,0.0731,0.0796,0.0802,0.0775,0.0691,0.0651,0.0519,0.0422,0.0338,0.0323,0.0296,0.0295,0.0298,0.0343,0.0397,0.0301,0,0,0,0,0,0.0167,0.0192,0.0268,0.0364,0.0476,0.0566,0.0688,0.0755,0.0816,0.077,0.0778,0.0684,0.0556,0.0501,0.0411,0.0409,0.0311,0.0302,0.028,0.0227,0.023,0.0275,0,0,0,0,0,0,0.0175,0.0219,0.0249,0.0372,0.0453,0.0591,0.0675,0.0716,0.0694,0.0719,0.0647,0.0646,0.0518,0.0592,0.0397,0.0377,0.0348,0.0254,0.0252,0.0225,0.0228,0.0231,0.0278,0,0,0,0,0]}]]